| time (UTC) | temp F | wind direction | speed MPH | gust MPH | rain 1hr in | rain 24hr in | rain mn in | humidity % | barometer mb |
| 20260504213107 | 71 | 72 | 1.0 | 5.0 | 0.00 | 0.00 | 0.00 | 33 | 1005.7 |
| 20260504211540 | 73 | 85 | 1.0 | 10.0 | 0.00 | 0.00 | 0.00 | 32 | 1005.7 |
| 20260504210035 | 73 | 84 | 2.0 | 5.0 | 0.00 | 0.00 | 0.00 | 30 | 1005.8 |
| 20260504204540 | 73 | 117 | 3.0 | 12.0 | 0.00 | 0.00 | 0.00 | 29 | 1005.7 |
| 20260504203034 | 73 | 55 | 3.0 | 16.0 | 0.00 | 0.00 | 0.00 | 31 | 1005.8 |
| 20260504201533 | 74 | 78 | 5.0 | 9.0 | 0.00 | 0.00 | 0.00 | 29 | 1005.6 |
| 20260504200033 | 74 | 65 | 3.0 | 10.0 | 0.00 | 0.00 | 0.00 | 29 | 1005.7 |
| 20260504194528 | 73 | 146 | 2.0 | 10.0 | 0.00 | 0.00 | 0.00 | 34 | 1005.8 |
| 20260504193027 | 72 | 131 | 4.0 | 13.0 | 0.00 | 0.00 | 0.00 | 29 | 1005.8 |
| 20260504191516 | 73 | 77 | 4.0 | 11.0 | 0.00 | 0.00 | 0.00 | 28 | 1005.8 |
| 20260504190015 | 74 | 94 | 3.0 | 13.0 | 0.00 | 0.00 | 0.00 | 28 | 1005.9 |
| 20260504184512 | 74 | 47 | 3.0 | 11.0 | 0.00 | 0.00 | 0.00 | 28 | 1006.1 |
| 20260504183009 | 72 | 101 | 6.0 | 18.0 | 0.00 | 0.00 | 0.00 | 29 | 1006.3 |
| 20260504181507 | 72 | 86 | 4.0 | 14.0 | 0.00 | 0.00 | 0.00 | 30 | 1006.5 |
| 20260504180141 | 72 | 101 | 3.0 | 13.0 | 0.00 | 0.00 | 0.00 | 29 | 1006.4 |
| 20260504174502 | 71 | 360 | 5.0 | 11.0 | 0.00 | 0.00 | 0.00 | 30 | 1006.5 |
| 20260504173058 | 70 | 65 | 4.0 | 13.0 | 0.00 | 0.00 | 0.00 | 31 | 1006.7 |
| 20260504171549 | 70 | 98 | 3.0 | 14.0 | 0.00 | 0.00 | 0.00 | 33 | 1006.9 |
| 20260504140103 | 62 | 5 | 2.0 | 9.0 | 0.00 | 0.00 | 0.00 | 46 | 1008.8 |
| 20260504120109 | 52 | 56 | 1.0 | 5.0 | 0.00 | 0.04 | 0.00 | 56 | 1010.0 |
| 20260504081505 | 41 | 64 | 0.0 | 0.0 | 0.00 | 0.04 | 0.00 | 75 | 1010.4 |
| 20260504044541 | 33 | 64 | 0.0 | 0.0 | 0.00 | 0.04 | 0.00 | 88 | 1010.5 |
| 20260504043038 | 33 | 64 | 0.0 | 0.0 | 0.00 | 0.04 | 0.00 | 87 | 1010.4 |
| 20260504041525 | 33 | 64 | 0.0 | 0.0 | 0.00 | 0.04 | 0.00 | 87 | 1010.4 |
| 20260504040025 | 33 | 65 | 0.0 | 0.0 | 0.00 | 0.04 | 0.00 | 86 | 1010.3 |
| 20260504034520 | 34 | 64 | 0.0 | 0.0 | 0.00 | 0.04 | 0.00 | 85 | 1010.1 |
| 20260504033018 | 34 | 64 | 0.0 | 0.0 | 0.00 | 0.04 | 0.00 | 84 | 1010.0 |
| 20260504031518 | 35 | 64 | 0.0 | 0.0 | 0.00 | 0.04 | 0.00 | 83 | 1010.1 |
| 20260504030014 | 35 | 64 | 0.0 | 0.0 | 0.00 | 0.04 | 0.00 | 82 | 1010.2 |
| 20260504024510 | 36 | 64 | 0.0 | 0.0 | 0.00 | 0.04 | 0.00 | 80 | 1010.0 |
| 20260504023050 | 36 | 64 | 0.0 | 0.0 | 0.00 | 0.04 | 0.00 | 78 | 1010.0 |
| 20260504021547 | 37 | 64 | 0.0 | 0.0 | 0.00 | 0.04 | 0.00 | 76 | 1010.0 |
| 20260504020034 | 38 | 64 | 0.0 | 0.0 | 0.00 | 0.04 | 0.00 | 73 | 1009.8 |
| 20260504014531 | 39 | 64 | 0.0 | 0.0 | 0.00 | 0.04 | 0.00 | 71 | 1009.7 |
| 20260504013011 | 40 | 65 | 0.0 | 0.0 | 0.00 | 0.04 | 0.00 | 69 | 1009.6 |
| 20260504011506 | 41 | 64 | 0.0 | 0.0 | 0.00 | 0.04 | 0.00 | 66 | 1009.4 |
| 20260504010001 | 42 | 64 | 0.0 | 0.0 | 0.00 | 0.04 | 0.00 | 65 | 1009.4 |
| 20260504004627 | 43 | 64 | 0.0 | 0.0 | 0.00 | 0.04 | 0.00 | 62 | 1009.2 |
| 20260504003054 | 44 | 65 | 0.0 | 0.0 | 0.00 | 0.04 | 0.00 | 56 | 1009.0 |
| 20260504001551 | 46 | 64 | 0.0 | 0.0 | 0.00 | 0.04 | 0.00 | 53 | 1008.7 |
| 20260504000048 | 48 | 67 | 0.0 | 2.0 | 0.00 | 0.04 | 0.00 | 51 | 1008.6 |
| 20260503234540 | 49 | 360 | 0.0 | 3.0 | 0.00 | 0.04 | 0.00 | 49 | 1008.5 |
| 20260503233023 | 49 | 360 | 2.0 | 4.0 | 0.00 | 0.04 | 0.00 | 46 | 1008.3 |
| 20260503231522 | 50 | 360 | 0.0 | 3.0 | 0.00 | 0.04 | 0.00 | 46 | 1008.1 |
| 20260503230018 | 51 | 360 | 0.0 | 5.0 | 0.00 | 0.04 | 0.00 | 45 | 1008.0 |
| 20260503224516 | 51 | 360 | 2.0 | 6.0 | 0.00 | 0.04 | 0.00 | 44 | 1007.9 |
| 20260503223012 | 52 | 360 | 1.0 | 3.0 | 0.00 | 0.04 | 0.00 | 43 | 1007.7 |
| 20260503221510 | 51 | 360 | 1.0 | 8.0 | 0.00 | 0.04 | 0.00 | 42 | 1007.6 |
| 20260503220005 | 52 | 360 | 1.0 | 5.0 | 0.00 | 0.04 | 0.00 | 43 | 1007.5 |
| 20260503214510 | 52 | 360 | 1.0 | 13.0 | 0.00 | 0.09 | 0.04 | 42 | 1007.4 |